Change the Weather History Date:

Saturday, August 17, 2013

  Actual Average Record
Temperature  
Mean Temperature 71 °F -  
Max Temperature 79 °F 87 °F 109 °F (1936)
Min Temperature 63 °F 65 °F 52 °F (1992)
Cooling Degree Days 6    
Growing Degree Days 21 (Base 50)    
Moisture  
Dew Point 63 °F    
Average Humidity 81    
Maximum Humidity 94    
Minimum Humidity 62    
Precipitation  
Precipitation 0.15 in - - ()
Sea Level Pressure  
Sea Level Pressure 30.12 in    
Wind  
Wind Speed 4 mph (NNE)    
Max Wind Speed 12 mph    
Max Gust Speed 16 mph    
Visibility 9 miles    
Events Rain    
Averages and records for this station are not official NWS values.
T = Trace of Precipitation, MM = Missing Value Source: NWS Daily Summary

Daily Weather History Graph

Daily Weather History Graph

Search for Another Location

Airport or City:

Trip Planner

Search our weather history database for the weather conditions in past years. The results will help you decide how hot, cold, wet, or windy it might be!

Date:

Astronomy

Aug. 17, 2013 Rise Set
Actual Time 6:14 AM CDT 7:46 PM CDT
Civil Twilight 5:46 AM CDT 8:14 PM CDT
Nautical Twilight 5:13 AM CDT 8:47 PM CDT
Astronomical Twilight 4:37 AM CDT 9:23 PM CDT
Moon 5:00 PM CDT (8/17) 2:19 AM CDT (8/17)
Length of Visible Light 14h 27m
Length of Day
13h 32m
Waxing Gibbous, 84% of the Moon is Illuminated
Aug 17
Waxing Gibbous
Aug 20
Full
Aug 28
Last Quarter
Sep 5
New
Sep 12
First Quarter

Hourly Weather History & Observations

Time (CDT) Temp. Dew Point Humidity Pressure Visibility Wind Dir Wind Speed Gust Speed Precip Events Conditions
12:52 AM 64.9 °F 60.1 °F 84% 30.12 in 10.0 mi North 4.6 mph - N/A   Overcast
1:52 AM 64.9 °F 59.0 °F 81% 30.12 in 10.0 mi Calm Calm - N/A   Overcast
2:52 AM 64.0 °F 60.1 °F 87% 30.11 in 10.0 mi NNW 3.5 mph - N/A   Scattered Clouds
3:52 AM 63.0 °F 60.1 °F 90% 30.11 in 10.0 mi NNW 3.5 mph - N/A   Overcast
4:52 AM 63.0 °F 60.1 °F 90% 30.11 in 10.0 mi NNW 3.5 mph - N/A   Overcast
5:52 AM 63.0 °F 59.0 °F 87% 30.12 in 10.0 mi North 5.8 mph - N/A   Overcast
6:52 AM 63.0 °F 60.1 °F 90% 30.13 in 10.0 mi NNE 4.6 mph - 0.00 in   Overcast
7:52 AM 64.0 °F 61.0 °F 90% 30.15 in 7.0 mi Calm Calm - 0.01 in Rain Light Rain
8:52 AM 66.0 °F 61.0 °F 84% 30.16 in 10.0 mi NE 3.5 mph - 0.00 in   Overcast
9:52 AM 66.0 °F 62.1 °F 87% 30.17 in 10.0 mi East 5.8 mph - N/A   Overcast
10:52 AM 72.0 °F 64.9 °F 78% 30.17 in 10.0 mi ESE 10.4 mph - N/A   Mostly Cloudy
11:52 AM 73.0 °F 64.9 °F 76% 30.15 in 10.0 mi ENE 8.1 mph - N/A   Partly Cloudy
12:52 PM 75.9 °F 64.9 °F 69% 30.13 in 10.0 mi ENE 6.9 mph - N/A   Scattered Clouds
1:52 PM 75.0 °F 64.0 °F 69% 30.12 in 10.0 mi Calm Calm - N/A   Partly Cloudy
2:52 PM 79.0 °F 64.9 °F 62% 30.10 in 10.0 mi NNE 9.2 mph - N/A   Scattered Clouds
3:52 PM 78.1 °F 64.0 °F 62% 30.10 in 10.0 mi NNE 9.2 mph 16.1 mph N/A   Mostly Cloudy
4:52 PM 75.9 °F 62.1 °F 62% 30.10 in 10.0 mi NNE 11.5 mph - N/A   Clear
5:52 PM 73.9 °F 63.0 °F 68% 30.10 in 10.0 mi NE 8.1 mph - N/A   Overcast
6:52 PM 73.9 °F 64.0 °F 71% 30.10 in 10.0 mi NE 4.6 mph - N/A   Clear
7:52 PM 71.1 °F 64.9 °F 81% 30.10 in 10.0 mi Calm Calm - N/A   Partly Cloudy
8:52 PM 70.0 °F 64.9 °F 84% 30.11 in 10.0 mi Calm Calm - N/A   Partly Cloudy
9:52 PM 68.0 °F 64.9 °F 90% 30.11 in 9.0 mi Calm Calm - N/A   Overcast
10:52 PM 66.9 °F 64.9 °F 93% 30.10 in 7.0 mi Calm Calm - N/A   Partly Cloudy
11:40 PM 66.2 °F 64.4 °F 94% 30.12 in 2.0 mi Calm Calm - 0.12 in Rain Rain
11:52 PM 66.9 °F 64.0 °F 90% 30.12 in 4.0 mi Calm Calm - 0.14 in Rain Rain